Regional Weather Roundup
Issued by NWS

Home | Current Version | Previous Version | Text Only | Print | Product List | Glossary Off
Versions: 1 2 3 4 5 6 7 8 9 10 11 12 13 14 15 16 17 18 19 20 21 22 23 24 25 26 27 28 29 30 31 32 33 34 35 36 37 38 39 40 41 42 43 44 45 46 47 48 49 50

000
ASUS45 KABQ 051010
RWRNM
NEW MEXICO REGIONAL WEATHER ROUNDUP
NATIONAL WEATHER SERVICE ALBUQUERQUE NM
400 AM MDT SAT SEP 05 2015

NOTE: "FAIR" MEANS FEW OR NO CLOUDS BELOW 12,000 FEET AGL WITH NO
       SIGNIFICANT WEATHER OR OBSTRUCTIONS TO VISION.

      THIS PRODUCT IS RELEASED AS TWO VERSIONS.  ONE VERSION NEAR
      THE TOP OF THE HOUR CONTAINING PRELIMINARY DATA FROM ALBUQUERQUE
      AND OTHER STATIONS.  A FINAL VERSION WITH ADDITIONAL DATA IS
      ISSUED ABOUT 10 MINUTES AFTER THE HOUR.

NMZ501-503-504-510>518-051100-
NORTHWEST PLATEAU/NORTHCENTRAL MOUNTAINS

CITY           SKY/WX    TMP DP  RH WIND       PRES   REMARKS
FARMINGTON     CLOUDY    60  57  89 E6        30.12R
LOS ALAMOS     MOCLDY    56  53  91 S7        30.24S
SANTA FE       CLOUDY    58  54  86 CALM      30.19S
TAOS           CLOUDY    55  45  67 CALM      30.25F
ANGEL FIRE     CLOUDY    54  49  82 CALM      30.28S

$$
NMZ402-403-502-505>509-051100-
WESTCENTRAL MOUNTAINS/SOUTHWEST MOUNTAINS

CITY           SKY/WX    TMP DP  RH WIND       PRES   REMARKS
GALLUP         LGT RAIN  59  55  87 S3        30.20R
GRANTS         DRIZZLE   58  57  98 SE3       30.23R
SILVER CITY      N/A     59  55  88 N7        30.13S

$$
NMZ407-409-411-412-051100-
SOUTHERN DESERTS

CITY           SKY/WX    TMP DP  RH WIND       PRES   REMARKS
LORDSBURG      FAIR      63  63 100 W9        30.06S
DEMING         FAIR      62  59  90 NW6       30.06S
LAS CRUCES     FAIR      70  55  59 N3        30.06S
HOLLOMAN AFB   CLOUDY    71  55  57 N6        30.02R
ALAMOGORDO     CLOUDY    70  55  60 N3        30.04S
T OR C         FAIR      63  57  81 NW5       30.08R

$$
NMZ519>523-051100-
CENTRAL VALLEYS/CENTRAL HIGHLANDS

CITY           SKY/WX    TMP DP  RH WIND       PRES   REMARKS
ALBUQUERQUE    CLOUDY    65  58  78 NW3       30.14S
DOUBLE EAGLE   CLOUDY    59  58  96 CALM      30.18R
MORIARTY ARPT  CLOUDY    57  54  88 CALM      30.20S
CLINES CORNERS CLOUDY    59  51  75 W10       30.21F
BELEN          PTSUNNY   61  60  97 N3        30.13R
SOCORRO        FAIR      60  57  90 CALM      30.10R

$$
NMZ524>526-539-540-051100-
SOUTHCENTRAL MOUNTAINS

CITY           SKY/WX    TMP DP  RH WIND       PRES   REMARKS
RUIDOSO        MOCLDY    59  54  82 SW6       30.23F

$$
NMZ527>531-051100-
NORTHEAST HIGHLANDS/NORTHEAST PLAINS

CITY           SKY/WX    TMP DP  RH WIND       PRES   REMARKS
LAS VEGAS      PTCLDY    59  50  72 SW13      30.20F
RATON          CLOUDY    62  50  64 SW6       30.12S
CLAYTON        MOCLDY    67  52  58 SW7       30.07R

$$
NMZ532>537-051100-
EASTCENTRAL PLAINS

CITY           SKY/WX    TMP DP  RH WIND       PRES   REMARKS
TUCUMCARI      CLEAR     65  55  70 SW5       30.02F
CANNON AFB     CLEAR     66  53  64 S3        30.07R
CLOVIS AIRPORT CLEAR     63  54  72 SE6       30.08S

$$
NMZ028-029-538-051100-
SOUTHEAST PLAINS

CITY           SKY/WX    TMP DP  RH WIND       PRES   REMARKS
ROSWELL        CLEAR     69  56  62 N6        30.02R
ARTESIA        CLEAR     68  54  60 N7        30.02R
CARLSBAD       CLEAR     70  50  49 S7        29.98R
HOBBS            N/A     68  54  60 CALM      30.04R


$$



USA.gov is the U.S. government's official web portal to all federal, state and local government web resources and services.